Tracking 17694 objects as of 29-May-2016
HD Live streaming from Space Station
objects crossing your sky now

ESSA 1 (OT-3)

Track ESSA 1 (OT-3) now!
10-day predictions
ESSA 1 (OT-3) is classified as:


NORAD ID: 1982
Int'l Code: 1966-008A
Perigee: 686.2 km
Apogee: 800.5 km
Inclination: 97.9 °
Period: 99.5 minutes
Semi major axis: 7114 km
RCS: 0.7257 m2 (medium)
Launch date: February 3, 1966
Source: United States (US)
Launch site: AIR FORCE EASTERN TEST RANGE (AFETR)
Your satellite tracking list
Your tracking list is empty





NASA's NSSDC Master Catalog

Two Line Element Set (TLE):
1 01982U 66008A   16149.21040083  .00000014  00000-0  15294-4 0  9999
2 01982  97.8719  24.4280 0080343 262.1200  97.0869 14.46774898647604
Source of the keplerian elements: AFSPC

N2YO: 514